Weather History for KVUJ - March, 2013

Change the Weather History Date:

Tuesday, March 12, 2013

  Actual Average (KHBI) Record (KHBI)
Temperature  
Mean Temperature 59 °F -  
Max Temperature 69 °F 63 °F 88 °F (1990)
Min Temperature 48 °F 40 °F 19 °F (1934)
Degree Days  
Heating Degree Days 6    
Growing Degree Days 9 (Base 50)    
Moisture  
Dew Point 50 °F    
Average Humidity 74    
Maximum Humidity 100    
Minimum Humidity 31    
Precipitation  
Precipitation 0.48 in - - ()
Sea Level Pressure  
Sea Level Pressure 29.88 in    
Wind  
Wind Speed 9 mph (WSW)    
Max Wind Speed 16 mph    
Max Gust Speed 24 mph    
Visibility 9 miles    
Events Rain    
Averages and records for this station are not official NWS values.
T = Trace of Precipitation, MM = Missing Value Source: NWS Daily Summary

Daily Weather History Graph

Daily Weather History Graph

Search for Another Location

Airport or City:

Trip Planner

Search our weather history database for the weather conditions in past years. The results will help you decide how hot, cold, wet, or windy it might be!

Date:

Astronomy

Mar. 12, 2013 Rise Set
Actual Time 7:35 AM EDT 7:25 PM EDT
Civil Twilight 7:09 AM EDT 7:51 PM EDT
Nautical Twilight 6:40 AM EDT 8:20 PM EDT
Astronomical Twilight 6:10 AM EDT 8:50 PM EDT
Moon 7:44 AM EDT (3/12) 8:34 PM EDT (3/12)
Length of Visible Light 12h 41m
Length of Day
11h 50m
New Moon, 1% of the Moon is Illuminated
Mar 12
New Moon
Mar 19
First Quarter
Mar 27
Full
Apr 3
Last Quarter
Apr 10
New

Hourly Weather History & Observations

Time (EDT) Temp. Dew Point Humidity Pressure Visibility Wind Dir Wind Speed Gust Speed Precip Events Conditions
12:15 AM 57.4 °F 55.0 °F 92% 29.92 in 10.0 mi SSE 8.1 mph - 0.01 in Rain Light Rain
12:35 AM 57.6 °F 55.2 °F 92% 29.91 in 10.0 mi SSE 10.4 mph - 0.01 in Rain Light Rain
12:55 AM 57.4 °F 55.4 °F 93% 29.92 in 10.0 mi SSE 12.7 mph 18.4 mph 0.02 in Rain Light Rain
1:15 AM 57.2 °F 55.8 °F 95% 29.91 in 7.0 mi South 10.4 mph - 0.01 in Rain Rain
1:35 AM 56.7 °F 55.6 °F 96% 29.90 in 10.0 mi SSE 8.1 mph 16.1 mph 0.03 in Rain Light Rain
1:55 AM 56.5 °F 55.8 °F 97% 29.89 in 10.0 mi SSE 9.2 mph - 0.04 in Rain Light Rain
2:15 AM 56.7 °F 55.9 °F 97% 29.89 in 10.0 mi SSE 10.4 mph - 0.01 in Rain Rain
2:35 AM 56.7 °F 56.3 °F 99% 29.88 in 10.0 mi SSE 11.5 mph 16.1 mph 0.02 in Rain Rain
2:55 AM 56.8 °F 56.3 °F 98% 29.87 in 7.0 mi SSE 11.5 mph - 0.03 in Rain Rain
3:15 AM 57.0 °F 56.5 °F 98% 29.85 in 10.0 mi SSE 10.4 mph 18.4 mph 0.01 in Rain Rain
3:35 AM 57.2 °F 57.2 °F 100% 29.86 in 10.0 mi South 9.2 mph - N/A Rain Light Rain
3:55 AM 57.4 °F 56.8 °F 98% 29.85 in 7.0 mi South 6.9 mph - 0.03 in Rain Rain
4:15 AM 57.4 °F 57.2 °F 99% 29.84 in 7.0 mi SSE 6.9 mph - 0.01 in Rain Rain
4:35 AM 59.0 °F 57.2 °F 94% 29.82 in 7.0 mi South 9.2 mph - N/A Rain Rain
4:55 AM 58.1 °F 57.6 °F 98% 29.81 in 10.0 mi South 11.5 mph 17.3 mph 0.04 in Rain Light Rain
5:15 AM 58.1 °F 57.7 °F 99% 29.80 in 10.0 mi South 10.4 mph 18.4 mph 0.01 in Rain Light Rain
5:35 AM 58.6 °F 58.1 °F 98% 29.80 in 10.0 mi South 13.8 mph 23.0 mph 0.02 in Rain Light Rain
5:55 AM 59.0 °F 58.3 °F 97% 29.80 in 7.0 mi South 16.1 mph 21.9 mph 0.03 in Rain Heavy Rain
6:15 AM 59.2 °F 58.8 °F 99% 29.81 in 5.0 mi SSW 13.8 mph 24.2 mph 0.01 in Rain Heavy Rain
6:35 AM 59.0 °F 59.0 °F 100% 29.81 in 7.0 mi SSW 13.8 mph 18.4 mph N/A Rain Rain
6:55 AM 59.2 °F 59.0 °F 99% 29.81 in 4.0 mi SSW 9.2 mph 16.1 mph 0.04 in Rain Heavy Rain
7:15 AM 59.2 °F 59.0 °F 99% 29.82 in 5.0 mi SSW 12.7 mph 18.4 mph 0.01 in Rain Rain
7:35 AM 59.4 °F 58.6 °F 97% 29.82 in 5.0 mi SSW 12.7 mph 23.0 mph 0.02 in Rain Rain
7:55 AM 59.2 °F 58.5 °F 97% 29.82 in 5.0 mi SSW 15.0 mph 20.7 mph 0.04 in Rain Rain
8:15 AM 59.2 °F 58.5 °F 97% 29.84 in 7.0 mi SSW 11.5 mph 16.1 mph 0.01 in Rain Rain
8:35 AM 59.2 °F 58.5 °F 97% 29.84 in 10.0 mi SW 6.9 mph - 0.02 in   Overcast
8:55 AM 59.0 °F 58.5 °F 98% 29.84 in 5.0 mi SW 5.8 mph - 0.03 in Rain Rain
9:15 AM 59.2 °F 59.0 °F 99% 29.84 in 3.0 mi North - - 0.01 in   Drizzle
9:35 AM 59.5 °F 59.2 °F 99% 29.85 in 7.0 mi North - - 0.02 in   Overcast
9:55 AM 59.9 °F 59.4 °F 98% 29.85 in 10.0 mi SSW 6.9 mph - 0.03 in   Overcast
10:15 AM 60.4 °F 59.9 °F 98% 29.85 in 10.0 mi SW 6.9 mph - N/A   Overcast
10:35 AM 60.3 °F 59.0 °F 96% 29.86 in 10.0 mi SW 5.8 mph - 0.01 in Rain Light Rain
10:55 AM 60.8 °F 59.4 °F 95% 29.86 in 10.0 mi SW 5.8 mph - 0.02 in Rain Light Rain
11:15 AM 61.9 °F 60.4 °F 95% 29.87 in 10.0 mi SW 4.6 mph - 0.01 in   Overcast
11:35 AM 62.8 °F 59.7 °F 90% 29.87 in 10.0 mi WSW 9.2 mph - 0.02 in   Overcast
11:55 AM 65.1 °F 60.4 °F 85% 29.87 in 10.0 mi WSW 9.2 mph - 0.02 in   Scattered Clouds
12:15 PM 66.0 °F 59.2 °F 79% 29.87 in 10.0 mi SW 10.4 mph 17.3 mph 0.01 in   Scattered Clouds
12:35 PM 63.7 °F 55.4 °F 74% 29.87 in 10.0 mi NNW 10.4 mph - 0.02 in   Mostly Cloudy
12:55 PM 63.0 °F 55.8 °F 77% 29.87 in 10.0 mi NNW 11.5 mph - 0.02 in   Mostly Cloudy
1:15 PM 63.7 °F 55.9 °F 76% 29.87 in 10.0 mi North 8.1 mph - 0.01 in   Mostly Cloudy
1:35 PM 65.3 °F 55.2 °F 70% 29.86 in 10.0 mi WSW 6.9 mph - 0.02 in   Mostly Cloudy
1:55 PM 64.6 °F 54.0 °F 68% 29.85 in 10.0 mi WNW 3.5 mph - 0.02 in   Mostly Cloudy
2:15 PM 64.9 °F 53.8 °F 67% 29.84 in 10.0 mi WNW 6.9 mph - N/A   Scattered Clouds
2:35 PM 65.1 °F 54.0 °F 67% 29.84 in 10.0 mi NNW 6.9 mph - 0.01 in   Mostly Cloudy
2:55 PM 67.3 °F 53.8 °F 62% 29.84 in 10.0 mi West 6.9 mph - 0.02 in   Mostly Cloudy
3:15 PM 69.4 °F 52.7 °F 55% 29.84 in 10.0 mi WSW 9.2 mph - N/A   Overcast
3:35 PM 68.4 °F 50.7 °F 53% 29.84 in 10.0 mi West 6.9 mph - N/A   Mostly Cloudy
3:55 PM 68.0 °F 49.6 °F 52% 29.84 in 10.0 mi WNW 10.4 mph 17.3 mph 0.01 in   Mostly Cloudy
4:15 PM 68.7 °F 49.3 °F 50% 29.84 in 10.0 mi WNW 4.6 mph - N/A   Scattered Clouds
4:35 PM 68.9 °F 46.4 °F 44% 29.85 in 10.0 mi NW 5.8 mph - 0.01 in   Scattered Clouds
4:55 PM 68.7 °F 45.0 °F 42% 29.85 in 10.0 mi West 8.1 mph 16.1 mph 0.01 in   Scattered Clouds
5:15 PM 68.0 °F 46.4 °F 46% 29.85 in 10.0 mi North 6.9 mph - N/A   Scattered Clouds
5:35 PM 68.2 °F 45.7 °F 44% 29.85 in 10.0 mi NNW 10.4 mph - 0.01 in   Scattered Clouds
5:55 PM 67.5 °F 40.5 °F 37% 29.87 in 10.0 mi NW 9.2 mph 17.3 mph 0.01 in   Clear
6:15 PM 67.1 °F 35.6 °F 31% 29.87 in 10.0 mi NW 4.6 mph - N/A   Clear
6:35 PM 65.5 °F 36.3 °F 34% 29.88 in 10.0 mi North - - N/A   Clear
6:55 PM 63.5 °F 34.7 °F 34% 29.89 in 10.0 mi NNW 5.8 mph - 0.01 in   Clear
7:15 PM 61.9 °F 34.2 °F 35% 29.90 in 10.0 mi NNW 8.1 mph - N/A   Clear
7:35 PM 60.8 °F 33.8 °F 36% 29.91 in 10.0 mi NNW 5.8 mph - N/A   Clear
7:55 PM 59.9 °F 33.6 °F 37% 29.93 in 10.0 mi NW 6.9 mph - N/A   Clear
8:15 PM 58.1 °F 33.1 °F 39% 29.95 in 10.0 mi NNW 8.1 mph - N/A   Clear
8:35 PM 57.2 °F 32.7 °F 40% 29.95 in 10.0 mi North 6.9 mph - N/A   Clear
8:55 PM 56.3 °F 31.3 °F 39% 29.96 in 10.0 mi NNW 6.9 mph - N/A   Clear
9:15 PM 54.3 °F 31.8 °F 42% 29.97 in 10.0 mi North 5.8 mph - N/A   Clear
9:35 PM 53.6 °F 32.0 °F 44% 29.98 in 10.0 mi North 4.6 mph - N/A   Clear
9:55 PM 52.9 °F 33.6 °F 48% 29.98 in 10.0 mi North 5.8 mph - 0.01 in   Clear
10:15 PM 51.6 °F 33.4 °F 50% 29.99 in 10.0 mi North 8.1 mph - N/A   Clear
10:35 PM 50.9 °F 33.1 °F 51% 30.00 in 10.0 mi North 4.6 mph - N/A   Clear
10:55 PM 50.0 °F 32.7 °F 52% 30.00 in 10.0 mi North 5.8 mph - N/A   Clear
11:15 PM 50.0 °F 32.2 °F 50% 30.00 in 10.0 mi North 5.8 mph - N/A   Clear
11:35 PM 49.5 °F 32.4 °F 52% 30.01 in 10.0 mi North 4.6 mph - N/A   Clear
11:55 PM 48.7 °F 32.5 °F 54% 30.02 in 10.0 mi North 5.8 mph - N/A   Clear